Powrót do katalogu

STARLINK-35709

AktywnyŁącznośćVLEO
NORAD 66216·PAYLOAD·🇺🇸 United States

Wystrzelony Oct 28, 2025 z Vandenberg Space Force Base

Loading…

Następne Przeloty (najbliższe 24 godziny)

TLE

ŚwieżeSource: CelesTrak SupGP

Epoka: Sep 14, 2026, 21:33 UTC

1 66216C 25244L   26257.89840278  .00020533  00000+0  60695-3 0  2574
2 66216  53.1601  69.6939 0000979  67.9601  71.2800 15.34366074    13

Śledź STARLINK-35709 w czasie rzeczywistym z AllMySat

Download on the App Store